Olympia, WA

10:19 PM PST on February 06, 2016 (GMT -0800)
Olympia

Weather History for KOLM - July, 2013

Change the Weather History Date:

Tuesday, July 9, 2013

  Actual Average Record
Temperature  
Mean Temperature 69 °F 63 °F  
Max Temperature 86 °F 76 °F 95 °F (1985)
Min Temperature 51 °F 50 °F 41 °F (1960)
Degree Days  
Heating Degree Days 0 3  
Month to date heating degree days 12 31  
Since 1 June heating degree days 148 219  
Since 1 July heating degree days 12 31  
Cooling Degree Days 4 1  
Month to date cooling degree days 19 9  
Year to date cooling degree days 47 23  
Since 1 June cooling degree days 45 20  
Growing Degree Days 18 (Base 50)    
Moisture  
Dew Point 55 °F    
Average Humidity 66    
Maximum Humidity 100    
Minimum Humidity 32    
Precipitation  
Precipitation 0.00 in 0.02 in 1.34 in (1995)
Month to date precipitation T 0.26  
Year to date precipitation 21.42 26.29  
Sea Level Pressure  
Sea Level Pressure 30.09 in    
Wind  
Wind Speed 4 mph (NE)    
Max Wind Speed 12 mph    
Max Gust Speed 14 mph    
Visibility 5 miles    
Events Fog , Rain    
T = Trace of Precipitation, MM = Missing Value Source: NWS Daily Summary

Daily Weather History Graph

Daily Weather History Graph

Search for Another Location

Airport or City:

Trip Planner

Search our weather history database for the weather conditions in past years. The results will help you decide how hot, cold, wet, or windy it might be!

Date:

Astronomy

Jul. 09, 2013 Rise Set
Actual Time 5:26 AM PDT 9:06 PM PDT
Civil Twilight 4:47 AM PDT 9:45 PM PDT
Nautical Twilight 3:55 AM PDT 10:37 PM PDT
Astronomical Twilight 2:43 AM PDT 11:48 PM PDT
Moon 7:05 AM PDT (7/9) 9:35 PM PDT (7/9)
Length of Visible Light 16h 57m
Length of Day
15h 39m
New Moon, 2% of the Moon is Illuminated
Jul 9
New Moon
Jul 15
First Quarter
Jul 22
Full
Jul 29
Last Quarter
Aug 6
New

Hourly Weather History & Observations

Time (PDT) Temp. Heat Index Dew Point Humidity Pressure Visibility Wind Dir Wind Speed Gust Speed Precip Events Conditions
12:54 AM 57.9 °F - 55.9 °F 93% 30.10 in 8.0 mi Calm Calm - N/A   Clear
1:54 AM 55.9 °F - 55.0 °F 97% 30.10 in 9.0 mi Calm Calm - N/A   Clear
2:11 AM 55.0 °F - 55.0 °F 100% 30.10 in 1.0 mi Calm Calm - N/A   Mist
2:18 AM 55.0 °F - 54.0 °F 96% 30.10 in 0.5 mi Calm Calm - N/A Fog Fog
2:23 AM 55.0 °F - 54.0 °F 96% 30.10 in 1.0 mi Calm Calm - N/A   Mist
2:47 AM 55.0 °F - 54.0 °F 96% 30.10 in 2.5 mi Calm Calm - N/A   Mostly Cloudy
2:51 AM 55.4 °F - 53.6 °F 94% 30.10 in 3.0 mi Calm Calm - N/A   Mostly Cloudy
2:54 AM 55.0 °F - 54.0 °F 96% 30.09 in 1.8 mi Calm Calm - N/A   Mostly Cloudy
3:00 AM 54.0 °F - 53.1 °F 97% 30.10 in 1.2 mi Calm Calm - N/A   Scattered Clouds
3:03 AM 55.0 °F - 54.0 °F 96% 30.10 in 0.8 mi Calm Calm - N/A   Mist
3:15 AM 55.9 °F - 55.0 °F 97% 30.10 in 1.2 mi Calm Calm - N/A   Clear
3:18 AM 55.0 °F - 54.0 °F 96% 30.10 in 3.0 mi Calm Calm - N/A   Clear
3:35 AM 53.1 °F - 53.1 °F 100% 30.10 in 3.0 mi Calm Calm - N/A   Partly Cloudy
3:44 AM 54.0 °F - 53.1 °F 97% 30.10 in 1.5 mi Calm Calm - N/A   Mostly Cloudy
3:46 AM 54.0 °F - 53.1 °F 97% 30.10 in 0.8 mi Calm Calm - N/A   Mist
3:54 AM 54.0 °F - 54.0 °F 100% 30.09 in 0.2 mi Calm Calm - N/A Fog Fog
4:00 AM 54.0 °F - 54.0 °F 100% 30.10 in 1.2 mi Calm Calm - N/A   Overcast
4:02 AM 54.0 °F - 54.0 °F 100% 30.10 in 2.0 mi Calm Calm - N/A   Overcast
4:12 AM 54.0 °F - 54.0 °F 100% 30.10 in 5.0 mi Calm Calm - N/A   Overcast
4:20 AM 54.0 °F - 53.1 °F 97% 30.10 in 1.5 mi Calm Calm - N/A   Overcast
4:23 AM 54.0 °F - 53.1 °F 97% 30.10 in 0.8 mi Calm Calm - N/A   Mist
4:34 AM 53.1 °F - 53.1 °F 100% 30.10 in 0.2 mi South 3.5 mph - N/A Fog Fog
4:44 AM 53.1 °F - 53.1 °F 100% 30.10 in 0.8 mi Calm Calm - N/A   Mist
4:54 AM 53.1 °F - 52.0 °F 96% 30.10 in 0.8 mi South 3.5 mph - N/A   Mist
5:09 AM 53.1 °F - 53.1 °F 100% 30.10 in 1.5 mi Calm Calm - N/A   Overcast
5:12 AM 53.1 °F - 53.1 °F 100% 30.10 in 3.0 mi Calm Calm - N/A   Overcast
5:21 AM 51.1 °F - 51.1 °F 100% 30.10 in 0.8 mi Calm Calm - N/A   Overcast
5:26 AM 51.1 °F - 51.1 °F 100% 30.10 in 0.2 mi Calm Calm - N/A Fog Fog
5:54 AM 52.0 °F - 52.0 °F 100% 30.10 in 0.2 mi Calm Calm - N/A Fog Fog
6:54 AM 54.0 °F - 54.0 °F 100% 30.11 in 0.2 mi Calm Calm - N/A Fog Fog
7:08 AM 55.0 °F - 55.0 °F 100% 30.11 in 0.5 mi Calm Calm - N/A Fog Fog
7:27 AM 55.0 °F - 55.0 °F 100% 30.12 in 0.2 mi Calm Calm - N/A Fog Fog
7:38 AM 55.0 °F - 55.0 °F 100% 30.12 in 0.5 mi Calm Calm - N/A Fog Fog
7:54 AM 55.9 °F - 55.0 °F 97% 30.12 in 1.8 mi Calm Calm - N/A   Overcast
8:01 AM 55.9 °F - 55.9 °F 100% 30.12 in 2.0 mi Calm Calm - N/A   Overcast
8:17 AM 57.9 °F - 55.9 °F 93% 30.12 in 8.0 mi Calm Calm - N/A   Partly Cloudy
8:54 AM 64.0 °F - 57.0 °F 78% 30.12 in 10.0 mi Calm Calm - 0.00 in Rain Light Rain
8:57 AM 64.0 °F - 57.9 °F 80% 30.12 in 10.0 mi Calm Calm - 0.00 in   Clear
9:54 AM 69.1 °F - 57.9 °F 68% 30.12 in 10.0 mi Calm Calm - 0.00 in   Clear
10:54 AM 73.0 °F - 59.0 °F 61% 30.11 in 10.0 mi Variable 3.5 mph - N/A   Clear
11:54 AM 77.0 °F - 59.0 °F 54% 30.10 in 10.0 mi North 4.6 mph - N/A   Clear
12:54 PM 79.0 °F - 57.9 °F 48% 30.08 in 10.0 mi NNE 6.9 mph - N/A   Clear
1:54 PM 82.0 °F 81.4 °F 55.0 °F 39% 30.07 in 10.0 mi NE 8.1 mph - N/A   Clear
2:54 PM 84.0 °F 82.9 °F 55.0 °F 37% 30.06 in 10.0 mi NE 8.1 mph - N/A   Clear
3:54 PM 86.0 °F 84.2 °F 54.0 °F 33% 30.05 in 10.0 mi Variable 5.8 mph - N/A   Clear
4:54 PM 86.0 °F 84.2 °F 54.0 °F 33% 30.03 in 10.0 mi NE 6.9 mph - N/A   Clear
5:54 PM 86.0 °F 84.7 °F 55.9 °F 36% 30.01 in 10.0 mi North 6.9 mph - N/A   Clear
6:54 PM 82.0 °F 81.7 °F 57.0 °F 42% 30.00 in 10.0 mi WNW 9.2 mph - N/A   Clear
7:54 PM 79.0 °F - 53.1 °F 40% 30.00 in 10.0 mi NNW 6.9 mph - N/A   Clear
8:54 PM 72.0 °F - 57.0 °F 59% 30.01 in 10.0 mi South 5.8 mph - N/A   Clear
9:54 PM 68.0 °F - 55.9 °F 65% 30.03 in 10.0 mi SE 5.8 mph - N/A   Clear
10:54 PM 63.0 °F - 54.0 °F 72% 30.04 in 10.0 mi SSE 3.5 mph - N/A   Clear
11:54 PM 59.0 °F - 52.0 °F 78% 30.05 in 10.0 mi South 3.5 mph - N/A   Clear